Tracking 19476 objects as of 18-Jan-2019
HD Live streaming from Space Station
objects crossing your sky now

HILAT

Track HILAT now!
10-day predictions
HILAT is classified as:


NORAD ID: 14154
Int'l Code: 1983-063A
Perigee: 748.7 km
Apogee: 806.5 km
Inclination: 82.0 °
Period: 100.3 minutes
Semi major axis: 7148 km
RCS: 1.3804 m2 (large)
Launch date: June 27, 1983
Source: United States (US)
Launch site: AIR FORCE WESTERN TEST RANGE (AFWTR)
aabbcc
Your satellite tracking list
Your tracking list is empty




NASA's NSSDC Master Catalog

Two Line Element Set (TLE):
1 14154U 83063A   19017.44768595  .00000076  00000-0  20439-4 0  9996
2 14154  82.0260 151.9134 0040469 195.7250 226.2241 14.36383460858942
Source of the keplerian elements: AFSPC